Location: Balsareny
(41.8670°N, 1.8830°E)
Time: 23:40:33
(UTC+02:00)

X-37B - Pass Details

Date: 23 June 2021
Orbit: 383 x 392 km, 45.0° (Epoch: 01 July)

Event Time Altitude Azimuth Distance (km) Brightness Sun altitude
Rises 22:28:07 0° 223° (SW) 2,244 4.5 -9.1°
Reaches altitude 10° 22:30:18 10° 213° (SSW) 1,394 3.3 -9.4°
Maximum altitude 22:33:06 30° 149° (SSE) 709 1.4 -9.8°
Drops below altitude 10° 22:35:56 10° 85° (E) 1,400 3.0 -10.2°
Enters shadow 22:37:37 - 76° (ENE) 2,053 3.9 -10.4°
